Location: Unspecified
(0.0000°N, 0.0000°E)
Time: 16:37:13
(UTC+00:00)

FENGYUN 1C DEB - Pass Details

Date: 20 February 2026
Orbit: 819 x 963 km, 99.2° (Epoch: 3 October)

Event Time Altitude Azimuth Distance (km) Brightness Sun altitude
Rises 03:32:07 0° 141° (SE) 3,496 ? -39.5°
Reaches altitude 10° 03:35:07 10° 125° (SE) 2,530 ? -38.8°
Maximum altitude 03:39:16 21° 77° (ENE) 1,819 ? -37.8°
Enters shadow 03:41:41 16° 44° (NE) 2,066 ? -37.2°
